Regional Weather Roundup
Issued by NWS

Home | Current Version | Previous Version | Graphics & Text | Print | Product List | Glossary On
Versions: 1 2 3 4 5 6 7 8 9 10 11 12 13 14 15 16 17 18 19 20 21 22 23 24 25 26 27 28 29 30 31 32 33 34 35 36 37 38 39 40 41 42 43 44 45 46 47 48 49 50
000
ASUS43 KLMK 301302
RWRKY
KENTUCKY REGIONAL WEATHER ROUNDUP
NATIONAL WEATHER SERVICE LOUISVILLE KY
900 AM EDT SUN APR 30 2017

NOTE "FAIR" INDICATES FEW OR NO CLOUDS BELOW 12,000 FEET
WITH NO SIGNIFICANT WEATHER AND/OR OBSTRUCTIONS TO VISIBILITY.

KYZ001>023-026-027-061>063-070>075-301400-
WESTERN AND SOUTH CENTRAL KENTUCKY

CITY           SKY/WX    TMP DP  RH WIND       PRES   REMARKS
PADUCAH        TSTM      65  62  90 SE9       29.82F FOG
HENDERSON        N/A    N/A N/A N/A MISG        N/A
OWENSBORO      LGT RAIN  67  63  87 S12       29.90R
HOPKINSVILLE   CLOUDY    67  65  91 SE8       29.91F
BOWLING GREEN  CLOUDY    74  67  78 S7        29.96R
GLASGOW        NOT AVBL
$$

KYZ024-025-028>034-038-045-046-053-301400-
NORTH CENTRAL KENTUCKY

CITY           SKY/WX    TMP DP  RH WIND       PRES   REMARKS
LOUISVILLE/SDF CLOUDY    75  66  73 S18G25    29.89S
LOUISVILLE/LOU CLOUDY    76  67  73 S16G23    29.90S
FORT KNOX      PTSUNNY   72  65  78 S16G23    29.91R
$$

KYZ035>037-039>044-047>052-055>060-089>105-301400-
NORTHEAST KENTUCKY

CITY           SKY/WX    TMP DP  RH WIND       PRES   REMARKS
LEXINGTON      CLOUDY    74  64  71 S15       29.96S
COVINGTON      CLOUDY    72  66  81 S13       29.92S
FRANKFORT      CLOUDY    73  65  75 SE8       29.93S
$$

KYZ054-064>069-076>088-106>120-301400-
SOUTHEAST KENTUCKY

CITY           SKY/WX    TMP DP  RH WIND       PRES   REMARKS
JACKSON        SUNNY     74  63  68 CALM      30.04R
LONDON         MOSUNNY   76  61  59 S9        30.02R
SOMERSET       CLOUDY    72  61  68 S7        30.02S
MIDDLESBORO    MOSUNNY   68  64  85 CALM      30.05R
MONTICELLO     PTSUNNY   74  65  73 SE9       30.01R
$$




USA.gov is the U.S. government's official web portal to all federal, state and local government web resources and services.